Location: Rathdrum
(47.8130°N, 116.8960°W)
Time: 16:30:11
(UTC-07:00)

Amateur Radio Satellites - All Passes

Search period start: 01 September 2014 16:00
Search period end: 02 September 2014 16:00
Location: Rathdrum, 47.8130°N, 116.8960°W

Satellite Date Start Highest point End Downlink Frequencies (MHz)
Time Altitude Azimuth
Sapphire 01 Sep 16:01:33 16:05:58 26° 109° (ESE) 16:10:23 437.095 MHz 1200 baud AX-25 AFSK
RS-15 01 Sep 16:05:55 16:17:02 83° 51° (NE) 16:28:32 29.354 - 29.394 USB, Beacon 29.352 USB
JAS-2 01 Sep 16:26:12 16:30:22 21° 60° (ENE) 16:34:18 435.800 - 435.900 CW/SSB, 435.910 FM
AO-7 01 Sep 16:28:45 16:37:02 67° 255° (WSW) 16:45:21 29.400 - 29.500 MHz
PCSat 01 Sep 16:29:51 16:34:59 46° 115° (ESE) 16:40:10 145.825 MHz
JAS-1B 01 Sep 16:35:16 16:40:31 16° 277° (W) 16:45:31 435.800 - 435.900 CW/SSB
ISS 01 Sep 17:12:38 17:14:18 13° 225° (SW) 17:15:59 145.800 FM
Hamsat 01 Sep 17:16:32 17:20:37 42° 70° (ENE) 17:24:45 145.90 MHz
OPAL 01 Sep 17:19:08 17:24:18 56° 103° (ESE) 17:29:24 ?
Uosat F 01 Sep 17:34:28 17:37:49 18° 270° (W) 17:41:11 435.120 FM
Sapphire 01 Sep 17:43:43 17:49:02 58° 309° (NW) 17:54:25 437.095 MHz 1200 baud AX-25 AFSK
JAS-2 01 Sep 18:09:09 18:15:06 69° 257° (WSW) 18:20:30 435.800 - 435.900 CW/SSB, 435.910 FM
PCSat 01 Sep 18:13:34 18:18:33 36° 316° (NW) 18:23:34 145.825 MHz
SO-67 01 Sep 18:17:59 18:20:52 25° 68° (ENE) 18:23:45 435.3500 MHz FM
RS-15 01 Sep 18:19:05 18:28:17 32° 255° (WSW) 18:37:48 29.354 - 29.394 USB, Beacon 29.352 USB
AO-7 01 Sep 18:27:24 18:31:27 14° 276° (W) 18:35:31 29.400 - 29.500 MHz
Hamsat 01 Sep 18:53:22 18:56:46 22° 268° (W) 19:00:11 145.90 MHz
OPAL 01 Sep 18:58:38 19:02:50 25° 302° (WNW) 19:07:01 ?
STRAND 1 01 Sep 19:06:32 19:11:12 35° 96° (E) 19:15:51 ?
Sapphire 01 Sep 19:30:10 19:33:39 17° 332° (NNW) 19:37:09 437.095 MHz 1200 baud AX-25 AFSK
HO-68 01 Sep 19:40:21 19:46:44 37° 59° (ENE) 19:53:08 435.675 MHz FM
SO-67 01 Sep 19:51:01 19:53:52 24° 266° (W) 19:56:45 435.3500 MHz FM
PCSat 01 Sep 20:01:11 20:03:38 13° 340° (NNW) 20:06:05 145.825 MHz
MaSat-1 01 Sep 20:04:33 20:06:45 13° 32° (NNE) 20:08:51 437.345 MHz
STRAND 1 01 Sep 20:45:47 20:50:24 35° 295° (WNW) 20:55:00 ?
UKube-1 01 Sep 20:48:46 20:52:55 46° 69° (ENE) 20:57:05 145.840 MHz, 145.915 MHz
Oscar 11 01 Sep 20:52:49 20:56:41 32° 67° (ENE) 21:00:35 145.825 FM, Beacon 2401.500 USB
Saudisat 1A 01 Sep 21:22:49 21:25:36 17° 112° (ESE) 21:28:23 436.775 MHz
FUNcube-1 01 Sep 21:25:00 21:28:36 28° 66° (ENE) 21:32:17 145.950 - 145.970 MHz USB
HO-68 01 Sep 21:27:17 21:34:14 54° 259° (W) 21:41:14 435.675 MHz FM
MaSat-1 01 Sep 21:40:18 21:44:57 55° 55° (NE) 21:49:00 437.345 MHz
KITSAT 1 01 Sep 22:20:38 22:27:23 30° 107° (ESE) 22:34:08 435.175 FM
UKube-1 01 Sep 22:26:07 22:29:21 20° 267° (W) 22:32:36 145.840 MHz, 145.915 MHz
Oscar 11 01 Sep 22:29:06 22:32:53 29° 265° (W) 22:36:42 145.825 FM, Beacon 2401.500 USB
Saudisat 1A 01 Sep 23:00:16 23:04:40 72° 310° (NW) 23:09:06 436.775 MHz
FUNcube-1 01 Sep 23:01:09 23:04:56 32° 264° (W) 23:08:49 145.950 - 145.970 MHz USB
Sapphire 01 Sep 23:02:23 23:05:30 15° 25° (NNE) 23:08:36 437.095 MHz 1200 baud AX-25 AFSK
AO-40 01 Sep 23:12:00 02:00:55 21° 130° (SE) 03:19:07 Beacon 2401.320
MaSat-1 01 Sep 23:18:16 23:21:24 19° 258° (WSW) 23:24:16 437.345 MHz
PCSat 01 Sep 23:31:20 23:35:23 21° 33° (NNE) 23:39:24 145.825 MHz
Oscar 10/S400 02 Sep 00:02:20 00:43:15 49° 196° (SSW) 07:58:22 145.825 - 145.975 CW/USB, Beacon 145.810 USB
KITSAT 1 02 Sep 00:14:02 00:22:08 75° 309° (NW) 00:30:16 435.175 FM
Saudisat 1A 02 Sep 00:42:02 00:45:02 17° 331° (NNW) 00:48:01 436.775 MHz
Sapphire 02 Sep 00:45:02 00:50:18 48° 48° (NE) 00:55:32 437.095 MHz 1200 baud AX-25 AFSK
PCSat 02 Sep 01:14:13 01:19:41 79° 55° (NE) 01:25:07 145.825 MHz
Oscar 19 02 Sep 01:19:22 01:22:59 19° 90° (E) 01:26:34 437.125 CW, 437.150 USB
Oscar 16 02 Sep 01:53:52 01:58:43 38° 97° (E) 02:03:31 437.025 USB, Beacon 2401.1428
ITAMSAT 1 02 Sep 01:57:21 02:00:53 18° 90° (E) 02:04:24 435.822 SSB
SO-50 02 Sep 02:04:59 02:05:56 11° 107° (ESE) 02:06:54 436.795 FM
Uribyol 2 02 Sep 02:06:16 02:10:22 23° 92° (E) 02:14:27 436.500 FM
KITSAT 1 02 Sep 02:12:05 02:18:57 29° 334° (NNW) 02:25:49 435.175 FM
TMSAT-1 02 Sep 02:21:43 02:22:28 10° 84° (E) 02:23:13 436.925 FM
JAS-1B 02 Sep 02:23:02 02:28:53 31° 91° (E) 02:34:05 435.800 - 435.900 CW/SSB
AO-27 02 Sep 02:26:18 02:30:58 32° 96° (E) 02:35:36 436.795 MHz FM
Sapphire 02 Sep 02:28:46 02:33:35 33° 248° (WSW) 02:38:21 437.095 MHz 1200 baud AX-25 AFSK
Oscar 19 02 Sep 02:57:38 03:02:49 67° 288° (WNW) 03:07:57 437.125 CW, 437.150 USB
PCSat 02 Sep 02:58:50 03:02:28 18° 254° (WSW) 03:06:05 145.825 MHz
OPAL 02 Sep 03:00:09 03:04:11 24° 58° (ENE) 03:08:15 ?
AO-Echo 02 Sep 03:05:14 03:09:57 78° 103° (ESE) 03:14:41 ?
Gurwin Techsat 1B 02 Sep 03:08:21 03:13:16 37° 96° (E) 03:18:09 435.225 FM
Oscar 16 02 Sep 03:33:22 03:38:01 34° 295° (WNW) 03:42:39 437.025 USB, Beacon 2401.1428
ITAMSAT 1 02 Sep 03:35:43 03:40:53 68° 288° (WNW) 03:46:02 435.822 SSB
SO-50 02 Sep 03:41:10 03:45:39 77° 126° (SE) 03:50:16 436.795 FM
Uribyol 2 02 Sep 03:45:06 03:50:10 54° 291° (WNW) 03:55:13 436.500 FM
UOSAT-12 02 Sep 03:50:52 03:51:33 10° 106° (ESE) 03:52:14 437.025 FM, 437.400 FM
TMSAT-1 02 Sep 03:58:02 04:03:21 72° 103° (ESE) 04:08:38 436.925 FM
Uosat F 02 Sep 03:59:09 04:02:06 16° 89° (E) 04:05:03 435.120 FM
AO-27 02 Sep 04:05:45 04:10:32 39° 294° (WNW) 04:15:19 436.795 MHz FM
Saudisat 1A 02 Sep 04:06:00 04:08:03 13° 21° (NNE) 04:10:05 436.775 MHz
KITSAT 1 02 Sep 04:11:29 04:17:22 21° 4° (N) 04:23:15 435.175 FM
JAS-1B 02 Sep 04:13:21 04:19:57 49° 296° (WNW) 04:25:40 435.800 - 435.900 CW/SSB
AO-7 02 Sep 04:26:36 04:34:04 36° 96° (E) 04:41:28 29.400 - 29.500 MHz
OPAL 02 Sep 04:37:41 04:42:41 58° 257° (WSW) 04:47:48 ?
Oscar 19 02 Sep 04:39:18 04:41:12 12° 308° (NW) 04:43:07 437.125 CW, 437.150 USB
AO-Echo 02 Sep 04:45:26 04:48:10 16° 302° (WNW) 04:50:54 ?
Gurwin Techsat 1B 02 Sep 04:48:25 04:53:13 36° 295° (WNW) 04:58:00 435.225 FM
STRAND 1 02 Sep 04:50:28 04:52:32 13° 53° (NE) 04:54:35 ?
JAS-2 02 Sep 05:16:58 05:17:53 10° 86° (E) 05:18:48 435.800 - 435.900 CW/SSB, 435.910 FM
ITAMSAT 1 02 Sep 05:17:27 05:19:27 12° 308° (NW) 05:21:27 435.822 SSB
SO-50 02 Sep 05:23:06 05:26:45 23° 327° (NNW) 05:30:28 436.795 FM
UOSAT-12 02 Sep 05:26:12 05:30:49 72° 125° (SE) 05:35:32 437.025 FM, 437.400 FM
Uosat F 02 Sep 05:36:28 05:41:29 76° 287° (WNW) 05:46:28 435.120 FM
TMSAT-1 02 Sep 05:38:59 05:42:44 20° 302° (WNW) 05:46:29 436.925 FM
Saudisat 1A 02 Sep 05:44:36 05:48:48 40° 43° (NE) 05:52:59 436.775 MHz
JAS-1B 02 Sep 06:06:42 06:08:41 11° 321° (NW) 06:10:35 435.800 - 435.900 CW/SSB
KITSAT 1 02 Sep 06:08:15 06:15:32 35° 33° (NNE) 06:22:47 435.175 FM
AO-7 02 Sep 06:19:10 06:27:18 62° 297° (WNW) 06:35:23 29.400 - 29.500 MHz
STRAND 1 02 Sep 06:25:46 06:30:50 71° 72° (ENE) 06:35:56 ?
Hamsat 02 Sep 06:34:32 06:38:49 53° 100° (E) 06:43:02 145.90 MHz
RS-15 02 Sep 06:34:49 06:44:21 36° 107° (ESE) 06:53:45 29.354 - 29.394 USB, Beacon 29.352 USB
JAS-2 02 Sep 06:58:35 07:03:51 76° 104° (ESE) 07:09:31 435.800 - 435.900 CW/SSB, 435.910 FM
UOSAT-12 02 Sep 07:07:35 07:11:27 25° 326° (NW) 07:15:22 437.025 FM, 437.400 FM
SO-50 02 Sep 07:07:58 07:09:02 11° 351° (N) 07:10:07 436.795 FM
SO-67 02 Sep 07:11:21 07:13:52 18° 93° (E) 07:16:21 435.3500 MHz FM
Uosat F 02 Sep 07:17:15 07:19:27 13° 306° (NW) 07:21:38 435.120 FM
Saudisat 1A 02 Sep 07:24:24 07:28:18 31° 243° (WSW) 07:32:11 436.775 MHz
KITSAT 1 02 Sep 08:03:44 08:11:52 84° 237° (WSW) 08:19:56 435.175 FM
STRAND 1 02 Sep 08:07:19 08:10:34 17° 271° (W) 08:13:51 ?
Hamsat 02 Sep 08:11:21 08:14:24 19° 298° (WNW) 08:17:26 145.90 MHz
AO-7 02 Sep 08:13:18 08:18:31 19° 319° (NW) 08:23:44 29.400 - 29.500 MHz
SO-67 02 Sep 08:43:53 08:47:00 31° 290° (WNW) 08:50:06 435.3500 MHz FM
RS-15 02 Sep 08:44:44 08:55:47 77° 311° (NW) 09:06:47 29.354 - 29.394 USB, Beacon 29.352 USB
JAS-2 02 Sep 08:45:01 08:48:29 18° 302° (WNW) 08:52:04 435.800 - 435.900 CW/SSB, 435.910 FM
SO-50 02 Sep 08:49:38 08:51:44 13° 17° (NNE) 08:53:50 436.795 FM
HO-68 02 Sep 08:51:28 08:57:16 26° 92° (E) 09:03:02 435.675 MHz FM
UOSAT-12 02 Sep 08:51:50 08:53:16 11° 350° (N) 08:54:42 437.025 FM, 437.400 FM
ISS 02 Sep 09:55:51 09:58:52 33° 144° (SE) 10:01:53 145.800 FM
KITSAT 1 02 Sep 10:00:34 10:06:07 21° 258° (WSW) 10:11:39 435.175 FM
UKube-1 02 Sep 10:09:32 10:13:48 52° 101° (E) 10:18:02 145.840 MHz, 145.915 MHz
Oscar 11 02 Sep 10:12:41 10:16:49 40° 98° (E) 10:20:55 145.825 FM, Beacon 2401.500 USB
SO-50 02 Sep 10:29:22 10:33:42 34° 40° (NE) 10:38:05 436.795 FM
UOSAT-12 02 Sep 10:33:36 10:35:33 12° 15° (NNE) 10:37:31 437.025 FM, 437.400 FM
HO-68 02 Sep 10:38:28 10:45:36 72° 292° (WNW) 10:52:43 435.675 MHz FM
FUNcube-1 02 Sep 10:46:07 10:50:22 38° 97° (E) 10:54:40 145.950 - 145.970 MHz USB
RS-15 02 Sep 11:00:14 11:10:08 37° 341° (NNW) 11:20:07 29.354 - 29.394 USB, Beacon 29.352 USB
JAS-1B 02 Sep 11:24:36 11:28:38 14° 43° (NE) 11:32:26 435.800 - 435.900 CW/SSB
ISS 02 Sep 11:32:10 11:35:28 61° 343° (NNW) 11:38:47 145.800 FM
MaSat-1 02 Sep 11:33:21 11:35:53 14° 100° (E) 11:38:28 437.345 MHz
Oscar 16 02 Sep 11:38:21 11:40:47 14° 54° (NE) 11:43:14 437.025 USB, Beacon 2401.1428
UKube-1 02 Sep 11:46:32 11:49:39 20° 299° (WNW) 11:52:46 145.840 MHz, 145.915 MHz
Oscar 11 02 Sep 11:49:17 11:52:49 24° 296° (WNW) 11:56:21 145.825 FM, Beacon 2401.500 USB
SO-50 02 Sep 12:09:51 12:14:26 47° 239° (WSW) 12:19:04 436.795 FM
AO-27 02 Sep 12:12:15 12:14:18 12° 52° (NE) 12:16:20 436.795 MHz FM
UOSAT-12 02 Sep 12:12:57 12:17:12 31° 38° (NE) 12:21:23 437.025 FM, 437.400 FM
FUNcube-1 02 Sep 12:22:48 12:26:38 28° 295° (WNW) 12:30:30 145.950 - 145.970 MHz USB
HO-68 02 Sep 12:27:35 12:32:09 19° 313° (NW) 12:36:44 435.675 MHz FM
Oscar 19 02 Sep 12:39:13 12:43:58 38° 66° (ENE) 12:48:45 437.125 CW, 437.150 USB
AO-Echo 02 Sep 12:44:26 12:48:07 21° 61° (ENE) 12:51:43 ?
Gurwin Techsat 1B 02 Sep 12:56:15 12:58:58 14° 54° (NE) 13:01:42 435.225 FM
MaSat-1 02 Sep 13:07:05 13:12:06 87° 119° (ESE) 13:17:18 437.345 MHz
JAS-1B 02 Sep 13:08:32 13:17:27 48° 64° (ENE) 13:25:16 435.800 - 435.900 CW/SSB
ISS 02 Sep 13:09:21 13:12:33 41° 3° (N) 13:15:44 145.800 FM
Oscar 16 02 Sep 13:14:08 13:19:17 76° 73° (ENE) 13:24:30 437.025 USB, Beacon 2401.1428
RS-15 02 Sep 13:16:25 13:26:15 36° 16° (NNE) 13:36:16 29.354 - 29.394 USB, Beacon 29.352 USB
ITAMSAT 1 02 Sep 13:18:21 13:23:07 39° 66° (ENE) 13:27:54 435.822 SSB
Uribyol 2 02 Sep 13:27:19 13:32:15 48° 68° (ENE) 13:37:13 436.500 FM
AO-7 02 Sep 13:40:29 13:45:53 20° 41° (NE) 13:51:16 29.400 - 29.500 MHz
TMSAT-1 02 Sep 13:43:55 13:48:09 25° 61° (ENE) 13:52:23 436.925 FM
AO-27 02 Sep 13:47:45 13:52:54 69° 72° (ENE) 13:58:04 436.795 MHz FM
UOSAT-12 02 Sep 13:52:59 13:57:35 51° 238° (WSW) 14:02:07 437.025 FM, 437.400 FM
Oscar 19 02 Sep 14:18:42 14:23:21 33° 264° (W) 14:28:03 437.125 CW, 437.150 USB
AO-Echo 02 Sep 14:21:39 14:26:33 57° 259° (W) 14:31:20 ?
Gurwin Techsat 1B 02 Sep 14:32:49 14:38:07 79° 73° (ENE) 14:43:27 435.225 FM
MaSat-1 02 Sep 14:45:56 14:49:47 21° 319° (NW) 14:53:40 437.345 MHz
ISS 02 Sep 14:46:12 14:49:32 83° 23° (NNE) 14:52:53 145.800 FM
Oscar 16 02 Sep 14:56:03 14:59:14 16° 271° (W) 15:02:27 437.025 USB, Beacon 2401.1428
ITAMSAT 1 02 Sep 14:58:05 15:02:41 32° 264° (W) 15:07:18 435.822 SSB
JAS-1B 02 Sep 14:58:33 15:07:53 52° 261° (W) 15:16:08 435.800 - 435.900 CW/SSB
Uribyol 2 02 Sep 15:07:44 15:11:58 26° 267° (W) 15:16:14 436.500 FM
Uosat F 02 Sep 15:15:15 15:19:38 32° 64° (ENE) 15:24:02 435.120 FM
TMSAT-1 02 Sep 15:22:34 15:27:44 55° 260° (W) 15:32:57 436.925 FM
AO-7 02 Sep 15:28:59 15:37:10 64° 64° (ENE) 15:45:22 29.400 - 29.500 MHz
AO-27 02 Sep 15:29:28 15:32:56 18° 270° (W) 15:36:25 436.795 MHz FM
RS-15 02 Sep 15:29:51 15:40:53 70° 46° (NE) 15:52:17 29.354 - 29.394 USB, Beacon 29.352 USB
Sapphire 02 Sep 15:31:55 15:35:42 20° 106° (ESE) 15:39:30 437.095 MHz 1200 baud AX-25 AFSK
